Home > Time Zones > World Clock > Weather > Italy > Parma > Past weeks

Flag for Italy Weather past 2 weeks in Parma, Italy

Now
79 °F

Clear.


Feels Like: 81 °F
Forecast: 67 / 99 °F
Wind: 2 mph from North

Location: Parma

Current Time: Jul 4, 2015 at 9:39:29 AM

Latest Report: Jul 4, 2015 at 8:50 AM


Visibility: 5 mi

Pressure: 30.21 "Hg

Humidity: 65%

Dew point: 66 °F

Location of ParmaLocation

Historic Weather in Parma — Graph

°F

Parma temperature yesterday

Maximum temperature yesterday: 91 °F (at 1:50 PM)
Minimum temperature yesterday: 72 °F (at 7:00 AM)
Average temperature yesterday: 85 °F

Past Weeks' High & Low Weather Summary

 TemperatureHumidityPressure
High91 °F (Jul 2, 3:50 PM)94% (Jun 19, 7:00 AM)30.24 "Hg (Jun 19, 7:00 AM)
Low59 °F (Jun 22, 6:00 AM)36% (Jul 1, 4:50 PM)29.71 "Hg (Jun 23, 7:00 AM)
Average77 °F56%30.03 "Hg
* Reported Jun 19 7:00 AM — Jul 4 7:50 AM, Parma, Weather by CustomWeather, © 2015

Note: Actual official high and low records may vary slightly from our data, if they occured in-between our weather recording intervals... More about our weather records

Advertising

Parma weather history for previous 24 hours

 ConditionsComfort  
Time TempWeatherWind HumidityBarometerVisibility
7:50 AM
Sat, Jul 4
77 °FClear.1 mph69%30.21 "Hg5 mi
7:00 AM72 °FClear.2 mph83%30.21 "Hg5 mi
10:50 PM
Fri, Jul 3
79 °FPassing clouds.No wind70%30.21 "HgN/A
9:50 PM82 °FScattered clouds.2 mph62%30.21 "HgN/A
8:50 PM86 °FScattered clouds.6 mph52%30.21 "HgN/A
7:50 PM88 °FPassing clouds.7 mph49%30.24 "HgN/A
6:50 PM90 °FPassing clouds.12 mph49%30.21 "HgN/A
5:50 PM91 °FPassing clouds.14 mph46%30.21 "HgN/A
4:50 PM91 °FPassing clouds.8 mph49%30.18 "HgN/A
3:50 PM91 °FPassing clouds.7 mph49%30.18 "HgN/A
2:50 PM91 °FPassing clouds.5 mph46%30.18 "HgN/A
1:50 PM91 °FSunny.2 mph44%30.21 "Hg10 mi
12:50 PM88 °FSunny.5 mph55%30.21 "Hg10 mi
11:50 AM86 °FSunny.5 mph55%30.24 "Hg10 mi
10:50 AM84 °FClear.3 mph58%30.24 "Hg5 mi
9:50 AM82 °FSunny.2 mph62%30.24 "Hg10 mi
Weather by CustomWeather, © 2015

See weather overviewHow to use our weather pages